Retour au catalogue

ONEWEB-0689

ActifCommunicationsPO
NORAD 61597·PAYLOAD·🇬🇧 United Kingdom

Lancé Oct 20, 2024 depuis Vandenberg Space Force Base

Loading…

Prochains Passages (prochaines 24 heures)

TLE

FraisSource: CelesTrak SupGP

Époque: Sep 14, 2026, 11:32 UTC

1 61597C 24188D   26257.48109211 -.00002684  00000+0 -75836-2 0  2578
2 61597  87.8969   3.3049 0001557 109.9254 359.1192 13.11414645    15

Suivez ONEWEB-0689 en temps réel avec AllMySat

Download on the App Store